IBE0104 SAEZ-LEMD

Flight info

Callsign IBE0104
Flight time N/A
Altitude 35000
Route DORVO1J DORVO UN857 KOVGO DCT MOLSU UN857 OPADU DCT GUNET N857 LZR DCT OXACA DCT SOTUK
Aircraft A359/H-SDE2E3GHIJ3J4J5LM1ORWXY/LB1D1

Departure

Time N/A
Airport Ezeiza International Airport - Ministro Pistarini (SAEZ)

Arrival

Time 2026-05-07 23:09
Airport Adolfo Suárez Madrid–Barajas Airport (LEMD)
Time Latitude Longitude Altitude Speed Heading
2026-05-07 17:34 -0.33086 -30.60117 36886 ft 481 kts 27°
2026-05-07 17:35 -0.27146 -30.57046 36886 ft 480 kts 27°
2026-05-07 17:35 -0.21195 -30.53969 37008 ft 485 kts 27°
2026-05-07 17:36 -0.18180 -30.52411 37125 ft 490 kts 27°
2026-05-07 17:36 -0.15142 -30.50840 37250 ft 493 kts 27°
2026-05-07 17:36 -0.12091 -30.49263 37439 ft 495 kts 27°
2026-05-07 17:36 -0.09034 -30.47682 37705 ft 495 kts 27°
2026-05-07 17:37 -0.05974 -30.46101 37995 ft 494 kts 27°
2026-05-07 17:37 -0.02923 -30.44523 38296 ft 493 kts 27°
2026-05-07 17:37 0.00122 -30.42949 38581 ft 492 kts 27°
2026-05-07 17:37 0.03161 -30.41378 38820 ft 491 kts 27°
2026-05-07 17:38 0.09224 -30.38244 38888 ft 490 kts 27°
2026-05-07 17:38 0.15271 -30.35118 38888 ft 489 kts 27°
2026-05-07 17:39 0.21318 -30.31992 38888 ft 489 kts 27°
2026-05-07 17:39 0.27360 -30.28873 38890 ft 489 kts 27°
2026-05-07 17:40 0.33361 -30.25768 38893 ft 489 kts 27°
2026-05-07 17:40 0.39399 -30.22641 38889 ft 488 kts 27°
2026-05-07 17:41 0.45433 -30.19518 38889 ft 488 kts 27°
2026-05-07 17:41 0.51467 -30.16397 38889 ft 488 kts 27°
2026-05-07 17:42 0.57497 -30.13278 38889 ft 488 kts 27°
2026-05-07 17:42 0.63531 -30.10157 38888 ft 488 kts 27°
2026-05-07 17:43 0.69568 -30.07034 38891 ft 488 kts 27°
2026-05-07 17:43 0.75601 -30.03913 38891 ft 488 kts 27°
2026-05-07 17:44 0.81633 -30.00792 38893 ft 488 kts 27°
2026-05-07 17:44 0.87664 -29.97672 38893 ft 488 kts 27°
2026-05-07 17:45 0.93654 -29.94573 38893 ft 488 kts 27°
2026-05-07 17:45 0.99683 -29.91454 38893 ft 488 kts 27°
2026-05-07 17:46 1.05710 -29.88335 38893 ft 488 kts 27°
2026-05-07 17:46 1.11736 -29.85217 38891 ft 488 kts 27°
2026-05-07 17:47 1.17763 -29.82098 38889 ft 488 kts 27°
2026-05-07 17:47 1.23790 -29.78979 38892 ft 488 kts 27°
2026-05-07 17:48 1.29824 -29.75857 38893 ft 488 kts 27°
2026-05-07 17:48 1.35860 -29.72733 38895 ft 489 kts 27°
2026-05-07 17:49 1.41896 -29.69605 38897 ft 489 kts 27°
2026-05-07 17:49 1.47928 -29.66449 38898 ft 489 kts 27°
2026-05-07 17:50 1.53948 -29.63289 38895 ft 489 kts 27°
2026-05-07 17:50 1.59932 -29.60152 38895 ft 489 kts 27°
2026-05-07 17:51 1.65957 -29.56996 38895 ft 489 kts 27°
2026-05-07 17:51 1.71980 -29.53843 38891 ft 488 kts 27°
2026-05-07 17:52 1.77989 -29.50696 38895 ft 487 kts 27°
2026-05-07 17:52 1.83981 -29.47558 38893 ft 486 kts 27°
2026-05-07 17:53 1.89974 -29.44420 38897 ft 486 kts 27°
2026-05-07 17:53 1.95966 -29.41281 38897 ft 486 kts 27°
2026-05-07 17:54 2.01957 -29.38144 38898 ft 486 kts 27°
2026-05-07 17:54 2.07947 -29.35007 38898 ft 486 kts 28°
2026-05-07 17:55 2.13931 -29.31871 38895 ft 486 kts 27°
2026-05-07 17:55 2.19920 -29.28733 38895 ft 486 kts 27°
2026-05-07 17:56 2.25906 -29.25597 38895 ft 486 kts 28°
2026-05-07 17:56 2.31848 -29.22480 38895 ft 486 kts 27°
2026-05-07 17:57 2.36858 -29.19855 38898 ft 484 kts 27°
2026-05-07 17:57 2.43786 -29.16225 38897 ft 483 kts 27°
2026-05-07 17:58 2.49746 -29.13101 38897 ft 483 kts 27°
2026-05-07 17:58 2.55699 -29.09980 38897 ft 483 kts 27°
2026-05-07 17:59 2.61658 -29.06856 38898 ft 483 kts 27°
2026-05-07 17:59 2.67612 -29.03734 38895 ft 483 kts 27°
2026-05-07 18:00 2.73596 -29.00596 38899 ft 488 kts 27°
2026-05-07 18:00 2.79615 -28.97439 38898 ft 489 kts 27°
2026-05-07 18:01 2.85639 -28.94278 38898 ft 490 kts 27°
2026-05-07 18:01 2.91686 -28.91105 38898 ft 491 kts 27°
2026-05-07 18:02 3.00770 -28.86339 38897 ft 491 kts 27°
2026-05-07 18:03 3.06827 -28.83160 38897 ft 491 kts 27°
2026-05-07 18:03 3.12879 -28.79984 38897 ft 492 kts 27°
2026-05-07 18:04 3.18941 -28.76811 38897 ft 492 kts 26°
2026-05-07 18:04 3.25002 -28.73642 38897 ft 491 kts 26°
2026-05-07 18:05 3.31020 -28.70496 38896 ft 491 kts 27°
2026-05-07 18:05 3.37078 -28.67326 38898 ft 491 kts 26°
2026-05-07 18:06 3.43129 -28.64160 38897 ft 489 kts 26°
2026-05-07 18:06 3.49137 -28.61015 38894 ft 487 kts 26°
2026-05-07 18:07 3.55135 -28.57877 38897 ft 486 kts 26°
2026-05-07 18:07 3.61136 -28.54736 38897 ft 487 kts 26°
2026-05-07 18:08 3.67132 -28.51597 38893 ft 487 kts 26°
2026-05-07 18:08 3.72120 -28.48986 38895 ft 487 kts 26°
2026-05-07 18:09 3.78127 -28.45840 38895 ft 488 kts 26°
2026-05-07 18:09 3.84138 -28.42691 38895 ft 488 kts 26°
2026-05-07 18:10 3.90151 -28.39541 38897 ft 488 kts 26°
2026-05-07 18:10 3.96163 -28.36391 38894 ft 488 kts 26°
2026-05-07 18:11 4.02175 -28.33241 38895 ft 488 kts 26°
2026-05-07 18:11 4.08190 -28.30089 38895 ft 488 kts 26°
2026-05-07 18:12 4.14212 -28.26932 38893 ft 489 kts 26°
2026-05-07 18:12 4.20240 -28.23771 38895 ft 489 kts 26°
2026-05-07 18:13 4.26264 -28.20612 38895 ft 489 kts 26°
2026-05-07 18:13 4.32292 -28.17451 38895 ft 489 kts 26°
2026-05-07 18:14 4.38314 -28.14292 38896 ft 489 kts 27°
2026-05-07 18:14 4.44353 -28.11124 38895 ft 490 kts 27°
2026-05-07 18:15 4.50395 -28.07953 38898 ft 490 kts 26°
2026-05-07 18:15 4.56432 -28.04782 38897 ft 489 kts 26°
2026-05-07 18:16 4.62460 -28.01619 38898 ft 489 kts 26°
2026-05-07 18:16 4.68445 -27.98477 38897 ft 489 kts 26°
2026-05-07 18:17 4.74468 -27.95315 38895 ft 489 kts 26°
2026-05-07 18:17 4.80489 -27.92152 38894 ft 488 kts 26°
2026-05-07 18:18 4.86507 -27.88990 38900 ft 488 kts 26°
2026-05-07 18:18 4.92521 -27.85830 38900 ft 488 kts 26°
2026-05-07 18:19 4.98538 -27.82667 38897 ft 488 kts 26°
2026-05-07 18:19 5.04557 -27.79503 38897 ft 488 kts 26°
2026-05-07 18:20 5.10577 -27.76338 38903 ft 488 kts 26°
2026-05-07 18:20 5.16577 -27.73182 38900 ft 487 kts 26°
2026-05-07 18:21 5.22571 -27.70029 38900 ft 486 kts 26°
2026-05-07 18:21 5.28565 -27.66875 38900 ft 486 kts 26°
2026-05-07 18:22 5.34558 -27.63721 38900 ft 486 kts 26°
2026-05-07 18:22 5.40554 -27.60566 38897 ft 486 kts 27°
2026-05-07 18:23 5.46510 -27.57430 38898 ft 487 kts 27°
2026-05-07 18:23 5.52517 -27.54267 38900 ft 488 kts 27°
2026-05-07 18:24 5.58525 -27.51102 38906 ft 488 kts 27°
2026-05-07 18:24 5.64531 -27.47937 38906 ft 488 kts 27°
2026-05-07 18:25 5.70541 -27.44769 38904 ft 488 kts 26°
2026-05-07 18:25 5.76547 -27.41604 38905 ft 488 kts 27°
2026-05-07 18:26 5.82582 -27.38423 38911 ft 491 kts 27°
2026-05-07 18:26 5.88634 -27.35231 38906 ft 491 kts 27°
2026-05-07 18:27 5.94677 -27.32043 38904 ft 491 kts 27°
2026-05-07 18:27 6.00726 -27.28852 38909 ft 491 kts 27°
2026-05-07 18:28 6.06773 -27.25660 38908 ft 491 kts 27°
2026-05-07 18:28 6.12830 -27.22463 38909 ft 495 kts 27°
2026-05-07 18:29 6.18987 -27.19212 38909 ft 502 kts 27°
2026-05-07 18:29 6.25167 -27.15947 38910 ft 501 kts 27°
2026-05-07 18:30 6.31322 -27.12695 38906 ft 499 kts 27°
2026-05-07 18:30 6.37459 -27.09452 38911 ft 498 kts 27°
2026-05-07 18:31 6.43595 -27.06209 38910 ft 498 kts 27°
2026-05-07 18:31 6.49732 -27.02964 38908 ft 498 kts 27°
2026-05-07 18:32 6.55861 -26.99719 38914 ft 498 kts 27°
2026-05-07 18:32 6.61952 -26.96493 38914 ft 498 kts 27°
2026-05-07 18:33 6.68085 -26.93244 38912 ft 498 kts 27°
2026-05-07 18:33 6.74215 -26.89997 38914 ft 498 kts 27°
2026-05-07 18:34 6.80343 -26.86749 38918 ft 500 kts 26°
2026-05-07 18:34 6.86516 -26.83478 38917 ft 502 kts 26°
2026-05-07 18:35 6.92690 -26.80205 38916 ft 502 kts 26°
2026-05-07 18:35 6.98864 -26.76930 38917 ft 502 kts 26°
2026-05-07 18:36 7.05039 -26.73654 38919 ft 502 kts 26°
2026-05-07 18:36 7.11215 -26.70377 38919 ft 502 kts 26°
2026-05-07 18:37 7.17388 -26.67099 38922 ft 501 kts 26°
2026-05-07 18:37 7.23560 -26.63822 38922 ft 502 kts 26°
2026-05-07 18:38 7.29735 -26.60542 38924 ft 502 kts 26°
2026-05-07 18:38 7.35908 -26.57263 38922 ft 502 kts 26°
2026-05-07 18:39 7.42070 -26.53987 38922 ft 500 kts 26°
2026-05-07 18:39 7.48244 -26.50705 38927 ft 506 kts 26°
2026-05-07 18:40 7.54496 -26.47382 38924 ft 516 kts 26°
2026-05-07 18:40 7.60897 -26.43977 38923 ft 524 kts 26°
2026-05-07 18:41 7.67369 -26.40532 38922 ft 527 kts 26°
2026-05-07 18:41 7.73847 -26.37082 38922 ft 527 kts 26°
2026-05-07 18:42 7.80326 -26.33630 38926 ft 527 kts 26°
2026-05-07 18:42 7.86808 -26.30177 38927 ft 527 kts 26°
2026-05-07 18:43 7.93293 -26.26721 38930 ft 527 kts 26°
2026-05-07 18:43 7.99780 -26.23262 38927 ft 527 kts 26°
2026-05-07 18:44 8.06271 -26.19800 38927 ft 528 kts 26°
2026-05-07 18:44 8.12761 -26.16338 38928 ft 528 kts 26°
2026-05-07 18:45 8.19204 -26.12898 38927 ft 528 kts 26°
2026-05-07 18:45 8.25693 -26.09434 38929 ft 527 kts 26°
2026-05-07 18:46 8.32173 -26.05973 38933 ft 527 kts 26°
2026-05-07 18:46 8.38660 -26.02509 38935 ft 527 kts 26°
2026-05-07 18:47 8.45143 -25.99045 38932 ft 527 kts 26°
2026-05-07 18:47 8.51627 -25.95579 38935 ft 527 kts 26°
2026-05-07 18:48 8.58096 -25.92120 38932 ft 525 kts 25°
2026-05-07 18:48 8.64551 -25.88668 38933 ft 524 kts 25°
2026-05-07 18:49 8.70995 -25.85220 38933 ft 524 kts 25°
2026-05-07 18:49 8.77442 -25.81769 38933 ft 524 kts 25°
2026-05-07 18:50 8.83888 -25.78318 38935 ft 524 kts 25°
2026-05-07 18:50 8.90285 -25.74891 38940 ft 523 kts 25°
2026-05-07 18:51 8.96695 -25.71455 38936 ft 521 kts 25°
2026-05-07 18:51 9.03099 -25.68022 38939 ft 521 kts 25°
2026-05-07 18:52 9.09497 -25.64591 38938 ft 521 kts 25°
2026-05-07 18:52 9.15902 -25.61154 38941 ft 521 kts 25°
2026-05-07 18:53 9.22310 -25.57715 38946 ft 522 kts 25°
2026-05-07 18:53 9.28745 -25.54260 38944 ft 525 kts 25°
2026-05-07 18:54 9.35211 -25.50787 38942 ft 526 kts 25°
2026-05-07 18:54 9.41680 -25.47310 38942 ft 526 kts 25°
2026-05-07 18:55 9.48147 -25.43832 38945 ft 526 kts 25°
2026-05-07 18:55 9.54613 -25.40354 38947 ft 526 kts 25°
2026-05-07 18:56 9.61081 -25.36873 38946 ft 527 kts 26°
2026-05-07 18:56 9.67567 -25.33382 38944 ft 528 kts 26°
2026-05-07 18:57 9.74066 -25.29881 38946 ft 529 kts 26°
2026-05-07 18:57 9.80559 -25.26382 38946 ft 529 kts 26°
2026-05-07 18:58 9.87053 -25.22881 38945 ft 529 kts 26°
2026-05-07 18:58 9.92451 -25.19970 38944 ft 529 kts 26°
2026-05-07 18:59 9.99996 -25.15896 38945 ft 528 kts 26°
2026-05-07 18:59 10.05433 -25.12957 38947 ft 528 kts 26°
2026-05-07 19:00 10.11919 -25.09450 38947 ft 529 kts 26°
2026-05-07 19:00 10.18412 -25.05938 38950 ft 529 kts 26°
2026-05-07 19:01 10.24903 -25.02426 38952 ft 529 kts 26°
2026-05-07 19:01 10.31419 -24.98900 38950 ft 533 kts 26°
2026-05-07 19:02 10.37973 -24.95351 38947 ft 535 kts 26°
2026-05-07 19:02 10.44547 -24.91788 38950 ft 535 kts 26°
2026-05-07 19:03 10.51070 -24.88252 38952 ft 535 kts 26°
2026-05-07 19:03 10.57641 -24.84688 38949 ft 535 kts 26°
2026-05-07 19:04 10.64211 -24.81122 38952 ft 536 kts 26°
2026-05-07 19:04 10.70809 -24.77541 38950 ft 539 kts 26°
2026-05-07 19:05 10.77434 -24.73943 38952 ft 540 kts 26°
2026-05-07 19:05 10.84056 -24.70344 38952 ft 540 kts 26°
2026-05-07 19:06 10.90672 -24.66746 38949 ft 538 kts 26°
2026-05-07 19:06 11.00574 -24.61358 38951 ft 537 kts 25°
2026-05-07 19:07 11.07158 -24.57774 38949 ft 536 kts 25°
2026-05-07 19:07 11.13739 -24.54189 38949 ft 536 kts 25°
2026-05-07 19:08 11.20276 -24.50626 38952 ft 536 kts 25°
2026-05-07 19:08 11.26851 -24.47042 38955 ft 536 kts 25°
2026-05-07 19:09 11.33432 -24.43451 38963 ft 536 kts 25°
2026-05-07 19:09 11.39992 -24.39870 38952 ft 534 kts 24°
2026-05-07 19:10 11.46538 -24.36294 38954 ft 533 kts 24°
2026-05-07 19:10 11.53078 -24.32721 38955 ft 533 kts 24°
2026-05-07 19:11 11.59612 -24.29150 38952 ft 533 kts 24°
2026-05-07 19:11 11.66146 -24.25576 38949 ft 533 kts 24°
2026-05-07 19:12 11.72683 -24.21998 38954 ft 533 kts 24°
2026-05-07 19:12 11.79223 -24.18417 38955 ft 534 kts 24°
2026-05-07 19:13 11.85770 -24.14830 38950 ft 534 kts 24°
2026-05-07 19:13 11.92314 -24.11243 38954 ft 534 kts 24°
2026-05-07 19:14 11.98856 -24.07655 38959 ft 534 kts 24°
2026-05-07 19:14 12.05354 -24.04088 38963 ft 534 kts 24°
2026-05-07 19:15 12.11912 -24.00488 38961 ft 535 kts 24°
2026-05-07 19:15 12.18472 -23.96884 38961 ft 535 kts 24°
2026-05-07 19:16 12.25028 -23.93280 38957 ft 535 kts 24°
2026-05-07 19:16 12.31592 -23.89670 38960 ft 535 kts 24°
2026-05-07 19:17 12.38150 -23.86060 38970 ft 535 kts 24°
2026-05-07 19:17 12.44718 -23.82444 38959 ft 537 kts 23°
2026-05-07 19:18 12.51304 -23.78816 38962 ft 538 kts 23°
2026-05-07 19:18 12.57890 -23.75185 38960 ft 538 kts 24°
2026-05-07 19:19 12.64473 -23.71553 38957 ft 538 kts 23°
2026-05-07 19:19 12.71058 -23.67919 38960 ft 538 kts 23°
2026-05-07 19:20 12.77651 -23.64278 38962 ft 540 kts 23°
2026-05-07 19:20 12.84275 -23.60619 38961 ft 541 kts 23°
2026-05-07 19:21 12.90862 -23.56976 38961 ft 542 kts 24°
2026-05-07 19:21 12.97537 -23.53283 38960 ft 542 kts 24°
2026-05-07 19:22 13.04126 -23.49634 38963 ft 542 kts 24°
2026-05-07 19:22 13.10758 -23.45960 38970 ft 542 kts 23°
2026-05-07 19:23 13.17408 -23.42275 38963 ft 544 kts 23°
2026-05-07 19:23 13.24068 -23.38581 38964 ft 544 kts 23°
2026-05-07 19:24 13.30731 -23.34883 38965 ft 544 kts 23°
2026-05-07 19:24 13.37388 -23.31186 38964 ft 544 kts 23°
2026-05-07 19:25 13.44048 -23.27485 38967 ft 544 kts 23°
2026-05-07 19:25 13.50702 -23.23786 38953 ft 544 kts 23°
2026-05-07 19:26 13.57362 -23.20083 38949 ft 544 kts 23°
2026-05-07 19:26 13.64023 -23.16380 38963 ft 544 kts 23°
2026-05-07 19:27 13.70633 -23.12701 38964 ft 544 kts 23°
2026-05-07 19:27 13.77290 -23.08994 38966 ft 544 kts 23°
2026-05-07 19:28 13.83951 -23.05282 38962 ft 545 kts 23°
2026-05-07 19:28 13.90616 -23.01566 38961 ft 545 kts 23°
2026-05-07 19:29 13.97279 -22.97849 38961 ft 545 kts 23°
2026-05-07 19:29 14.03943 -22.94128 38966 ft 545 kts 23°
2026-05-07 19:30 14.10604 -22.90407 38961 ft 545 kts 23°
2026-05-07 19:30 14.17272 -22.86679 38970 ft 546 kts 23°
2026-05-07 19:31 14.23948 -22.82944 38965 ft 546 kts 23°
2026-05-07 19:31 14.30582 -22.79230 38963 ft 546 kts 23°
2026-05-07 19:32 14.37299 -22.75467 38962 ft 546 kts 23°
2026-05-07 19:32 14.43934 -22.71748 38962 ft 546 kts 23°
2026-05-07 19:33 14.50612 -22.68001 38974 ft 547 kts 23°
2026-05-07 19:33 14.57303 -22.64246 38966 ft 548 kts 23°
2026-05-07 19:34 14.64004 -22.60482 38969 ft 548 kts 23°
2026-05-07 19:34 14.70707 -22.56713 38966 ft 548 kts 23°
2026-05-07 19:35 14.77405 -22.52945 38969 ft 548 kts 23°
2026-05-07 19:35 14.84106 -22.49173 38990 ft 549 kts 22°
2026-05-07 19:36 14.90821 -22.45390 38964 ft 550 kts 23°
2026-05-07 19:36 14.97551 -22.41597 38966 ft 551 kts 23°
2026-05-07 19:37 15.04279 -22.37801 38965 ft 551 kts 23°
2026-05-07 19:37 15.11007 -22.34002 38969 ft 551 kts 23°
2026-05-07 19:38 15.17736 -22.30200 38969 ft 551 kts 23°
2026-05-07 19:38 15.24472 -22.26391 38972 ft 552 kts 23°
2026-05-07 19:39 15.31207 -22.22581 38965 ft 552 kts 23°
2026-05-07 19:39 15.36805 -22.19412 38968 ft 552 kts 23°
2026-05-07 19:40 15.44680 -22.14949 38969 ft 552 kts 23°
2026-05-07 19:40 15.51415 -22.11130 38972 ft 552 kts 23°
2026-05-07 19:41 15.58101 -22.07335 38970 ft 551 kts 23°
2026-05-07 19:41 15.64862 -22.03495 38969 ft 550 kts 23°
2026-05-07 19:42 15.71581 -21.99676 38985 ft 550 kts 23°
2026-05-07 19:42 15.78250 -21.95884 38972 ft 550 kts 23°
2026-05-07 19:43 15.84964 -21.92062 38970 ft 550 kts 23°
2026-05-07 19:43 15.91677 -21.88238 38979 ft 550 kts 23°
2026-05-07 19:44 15.98383 -21.84414 38976 ft 549 kts 23°
2026-05-07 19:44 16.05076 -21.80590 38976 ft 549 kts 23°
2026-05-07 19:45 16.11779 -21.76758 38974 ft 550 kts 23°
2026-05-07 19:45 16.18484 -21.72922 38977 ft 550 kts 23°
2026-05-07 19:46 16.25190 -21.69082 38988 ft 550 kts 23°
2026-05-07 19:46 16.31893 -21.65241 38981 ft 550 kts 23°
2026-05-07 19:47 16.38592 -21.61399 38982 ft 550 kts 23°
2026-05-07 19:47 16.45289 -21.57556 38975 ft 550 kts 23°
2026-05-07 19:48 16.51938 -21.53737 38978 ft 550 kts 23°
2026-05-07 19:48 16.58636 -21.49887 38992 ft 550 kts 23°
2026-05-07 19:49 16.65337 -21.46033 38981 ft 550 kts 23°
2026-05-07 19:49 16.72043 -21.42172 38979 ft 551 kts 23°
2026-05-07 19:50 16.78753 -21.38305 38980 ft 551 kts 23°
2026-05-07 19:50 16.85459 -21.34438 38979 ft 551 kts 23°
2026-05-07 19:51 16.92170 -21.30565 38980 ft 551 kts 23°
2026-05-07 19:51 16.97744 -21.27345 38980 ft 551 kts 23°
2026-05-07 19:52 17.04455 -21.23466 38977 ft 551 kts 23°
2026-05-07 19:52 17.11158 -21.19588 38977 ft 551 kts 23°
2026-05-07 19:53 17.17865 -21.15705 38979 ft 551 kts 23°
2026-05-07 19:53 17.25658 -21.11190 38979 ft 551 kts 23°
2026-05-07 19:54 17.31279 -21.07930 38981 ft 552 kts 24°
2026-05-07 19:54 17.37995 -21.04032 38979 ft 552 kts 24°
2026-05-07 19:55 17.44702 -21.00135 38979 ft 552 kts 24°
2026-05-07 19:55 17.51374 -20.96256 38980 ft 552 kts 24°
2026-05-07 19:56 17.58090 -20.92348 38980 ft 552 kts 24°
2026-05-07 19:56 17.64803 -20.88438 38986 ft 552 kts 24°
2026-05-07 19:57 17.71514 -20.84526 38982 ft 552 kts 24°
2026-05-07 19:57 17.78222 -20.80612 38982 ft 552 kts 24°
2026-05-07 19:58 17.84937 -20.76691 38985 ft 553 kts 24°
2026-05-07 19:58 17.91657 -20.72764 38982 ft 553 kts 24°
2026-05-07 19:59 17.98380 -20.68831 38994 ft 553 kts 24°
2026-05-07 19:59 18.05089 -20.64903 38985 ft 552 kts 24°
2026-05-07 20:00 18.11796 -20.60973 38987 ft 552 kts 24°
2026-05-07 20:00 18.18499 -20.57042 38988 ft 552 kts 24°
2026-05-07 20:01 18.25203 -20.53107 38988 ft 552 kts 24°
2026-05-07 20:01 18.31908 -20.49168 39008 ft 551 kts 24°
2026-05-07 20:02 18.38579 -20.45243 38986 ft 549 kts 24°
2026-05-07 20:02 18.45252 -20.41316 38987 ft 549 kts 24°
2026-05-07 20:03 18.51924 -20.37386 38988 ft 549 kts 24°
2026-05-07 20:03 18.58598 -20.33451 38988 ft 549 kts 24°
2026-05-07 20:04 18.65269 -20.29514 38988 ft 549 kts 24°
2026-05-07 20:04 18.71901 -20.25594 38978 ft 544 kts 25°
2026-05-07 20:05 18.78484 -20.21701 38995 ft 542 kts 25°
2026-05-07 20:05 18.85059 -20.17811 38995 ft 541 kts 25°
2026-05-07 20:06 18.91579 -20.13951 38998 ft 541 kts 25°
2026-05-07 20:06 18.98166 -20.10047 39001 ft 544 kts 24°
2026-05-07 20:07 19.04755 -20.06137 38989 ft 540 kts 25°
2026-05-07 20:07 19.11326 -20.02231 38990 ft 537 kts 25°
2026-05-07 20:08 19.17808 -19.98378 38990 ft 537 kts 25°
2026-05-07 20:08 19.24316 -19.94507 38994 ft 537 kts 25°
2026-05-07 20:09 19.30821 -19.90633 38988 ft 537 kts 25°
2026-05-07 20:10 19.40568 -19.84822 38991 ft 533 kts 25°
2026-05-07 20:10 19.47024 -19.80967 38991 ft 532 kts 25°
2026-05-07 20:11 19.53476 -19.77112 38992 ft 533 kts 25°
2026-05-07 20:11 19.59949 -19.73242 38992 ft 534 kts 25°
2026-05-07 20:12 19.66420 -19.69371 38994 ft 534 kts 25°
2026-05-07 20:12 19.72886 -19.65498 38990 ft 532 kts 26°
2026-05-07 20:13 19.77680 -19.62623 38994 ft 531 kts 26°
2026-05-07 20:13 19.84110 -19.58767 38994 ft 531 kts 26°
2026-05-07 20:14 19.90540 -19.54907 38996 ft 531 kts 26°
2026-05-07 20:14 19.96967 -19.51045 38995 ft 531 kts 26°
2026-05-07 20:15 20.03391 -19.47181 39013 ft 530 kts 26°
2026-05-07 20:15 20.09802 -19.43320 38999 ft 530 kts 26°
2026-05-07 20:16 20.16217 -19.39454 39000 ft 530 kts 26°
2026-05-07 20:16 20.22587 -19.35612 38995 ft 530 kts 26°
2026-05-07 20:17 20.29000 -19.31740 38994 ft 530 kts 26°
2026-05-07 20:17 20.35410 -19.27866 38996 ft 530 kts 26°
2026-05-07 20:18 20.41820 -19.23987 38996 ft 530 kts 26°
2026-05-07 20:18 20.48233 -19.20104 38996 ft 530 kts 26°
2026-05-07 20:19 20.54641 -19.16220 38996 ft 530 kts 26°
2026-05-07 20:19 20.61046 -19.12334 38996 ft 530 kts 26°
2026-05-07 20:20 20.67458 -19.08440 38997 ft 531 kts 26°
2026-05-07 20:20 20.73876 -19.04538 38999 ft 530 kts 26°
2026-05-07 20:21 20.80284 -19.00637 38996 ft 530 kts 26°
2026-05-07 20:21 20.86687 -18.96738 38996 ft 530 kts 26°
2026-05-07 20:22 20.93089 -18.92834 38998 ft 530 kts 26°
2026-05-07 20:22 20.99489 -18.88928 38997 ft 530 kts 26°
2026-05-07 20:23 21.05886 -18.85020 38993 ft 529 kts 26°
2026-05-07 20:23 21.12277 -18.81110 38992 ft 528 kts 25°
2026-05-07 20:24 21.18657 -18.77205 39007 ft 528 kts 25°
2026-05-07 20:24 21.25036 -18.73296 38992 ft 528 kts 26°
2026-05-07 20:25 21.31417 -18.69383 38996 ft 528 kts 26°
2026-05-07 20:25 21.37798 -18.65468 39011 ft 528 kts 26°
2026-05-07 20:26 21.44163 -18.61553 38999 ft 527 kts 26°
2026-05-07 20:26 21.50513 -18.57642 38999 ft 526 kts 26°
2026-05-07 20:27 21.56863 -18.53729 39000 ft 526 kts 26°
2026-05-07 20:27 21.63205 -18.49818 39001 ft 526 kts 26°
2026-05-07 20:28 21.69550 -18.45901 39001 ft 526 kts 26°
2026-05-07 20:28 21.75892 -18.41983 39006 ft 526 kts 26°
2026-05-07 20:29 21.82240 -18.38055 39000 ft 526 kts 26°
2026-05-07 20:29 21.88588 -18.34124 39002 ft 526 kts 26°
2026-05-07 20:30 21.94934 -18.30190 39001 ft 526 kts 26°
2026-05-07 20:30 22.01279 -18.26253 39000 ft 526 kts 26°
2026-05-07 20:31 22.07630 -18.22308 39011 ft 526 kts 26°
2026-05-07 20:31 22.13931 -18.18389 39004 ft 526 kts 26°
2026-05-07 20:32 22.20269 -18.14444 39002 ft 526 kts 26°
2026-05-07 20:32 22.26604 -18.10496 39000 ft 526 kts 26°
2026-05-07 20:33 22.32946 -18.06541 39004 ft 527 kts 26°
2026-05-07 20:33 22.39299 -18.02573 39004 ft 527 kts 26°
2026-05-07 20:34 22.45653 -17.98601 39002 ft 528 kts 26°
2026-05-07 20:34 22.52005 -17.94626 39004 ft 528 kts 26°
2026-05-07 20:35 22.58353 -17.90649 39007 ft 528 kts 26°
2026-05-07 20:35 22.64704 -17.86666 39004 ft 528 kts 26°
2026-05-07 20:36 22.71059 -17.82676 39004 ft 528 kts 26°
2026-05-07 20:36 22.77404 -17.78687 39008 ft 528 kts 26°
2026-05-07 20:37 22.83758 -17.74690 39005 ft 528 kts 26°
2026-05-07 20:37 22.90114 -17.70687 39007 ft 529 kts 26°
2026-05-07 20:38 22.96480 -17.66673 39006 ft 529 kts 26°
2026-05-07 20:38 23.01768 -17.63335 39007 ft 529 kts 26°
2026-05-07 20:39 23.08140 -17.59308 39018 ft 530 kts 26°
2026-05-07 20:39 23.14503 -17.55283 39006 ft 530 kts 26°
2026-05-07 20:40 23.20874 -17.51249 39008 ft 530 kts 26°
2026-05-07 20:40 23.27239 -17.47214 39006 ft 530 kts 26°
2026-05-07 20:41 23.33603 -17.43175 39008 ft 530 kts 26°
2026-05-07 20:41 23.39966 -17.39132 39030 ft 530 kts 26°
2026-05-07 20:42 23.46301 -17.35103 39007 ft 531 kts 26°
2026-05-07 20:42 23.52684 -17.31038 39006 ft 532 kts 26°
2026-05-07 20:43 23.59070 -17.26967 39017 ft 532 kts 26°
2026-05-07 20:43 23.65453 -17.22893 39009 ft 532 kts 26°
2026-05-07 20:44 23.71833 -17.18815 39010 ft 532 kts 26°
2026-05-07 20:44 23.78218 -17.14731 39015 ft 532 kts 26°
2026-05-07 20:45 23.84598 -17.10645 39017 ft 532 kts 26°
2026-05-07 20:45 23.90979 -17.06553 39015 ft 532 kts 26°
2026-05-07 20:46 23.97358 -17.02459 39000 ft 532 kts 26°
2026-05-07 20:46 24.03746 -16.98353 39013 ft 533 kts 26°
2026-05-07 20:47 24.10141 -16.94238 39011 ft 533 kts 26°
2026-05-07 20:47 24.16537 -16.90118 39009 ft 533 kts 26°
2026-05-07 20:48 24.22934 -16.85992 39014 ft 534 kts 26°
2026-05-07 20:48 24.29327 -16.81864 39012 ft 534 kts 26°
2026-05-07 20:49 24.35725 -16.77728 39015 ft 534 kts 26°
2026-05-07 20:49 24.42078 -16.73616 39017 ft 534 kts 26°
2026-05-07 20:50 24.48478 -16.69469 39017 ft 534 kts 26°
2026-05-07 20:50 24.54878 -16.65317 39015 ft 535 kts 26°
2026-05-07 20:51 24.61287 -16.61154 39015 ft 535 kts 26°
2026-05-07 20:51 24.67693 -16.56988 39015 ft 535 kts 26°
2026-05-07 20:52 24.74097 -16.52817 39021 ft 535 kts 26°
2026-05-07 20:52 24.80513 -16.48635 39017 ft 536 kts 26°
2026-05-07 20:53 24.86927 -16.44449 39018 ft 536 kts 26°
2026-05-07 20:53 24.93340 -16.40258 39018 ft 536 kts 26°
2026-05-07 20:54 24.99756 -16.36060 39018 ft 536 kts 26°
2026-05-07 20:54 25.06172 -16.31857 39023 ft 537 kts 25°
2026-05-07 20:55 25.12602 -16.27638 39018 ft 538 kts 25°
2026-05-07 20:55 25.19036 -16.23411 39018 ft 538 kts 26°
2026-05-07 20:56 25.25466 -16.19181 39018 ft 538 kts 26°
2026-05-07 20:56 25.31905 -16.14941 39019 ft 538 kts 26°
2026-05-07 20:57 25.38340 -16.10698 39014 ft 538 kts 25°
2026-05-07 20:57 25.44776 -16.06449 39014 ft 539 kts 25°
2026-05-07 20:58 25.51208 -16.02198 39017 ft 539 kts 25°
2026-05-07 20:58 25.57643 -15.97939 39020 ft 539 kts 25°
2026-05-07 20:59 25.64083 -15.93671 39016 ft 539 kts 25°
2026-05-07 20:59 25.70523 -15.89398 39033 ft 539 kts 25°
2026-05-07 21:00 25.76960 -15.85121 39019 ft 539 kts 25°
2026-05-07 21:00 25.83394 -15.80841 39024 ft 539 kts 25°
2026-05-07 21:01 25.89827 -15.76557 39022 ft 539 kts 25°
2026-05-07 21:01 25.96258 -15.72267 39017 ft 539 kts 25°
2026-05-07 21:02 26.02687 -15.67974 39033 ft 539 kts 25°
2026-05-07 21:02 26.09110 -15.63679 39022 ft 539 kts 25°
2026-05-07 21:03 26.15506 -15.59398 39022 ft 541 kts 25°
2026-05-07 21:03 26.21962 -15.55071 39020 ft 541 kts 25°
2026-05-07 21:04 26.28413 -15.50739 39019 ft 542 kts 25°
2026-05-07 21:04 26.34865 -15.46402 39024 ft 541 kts 25°
2026-05-07 21:05 26.41315 -15.42061 39020 ft 541 kts 25°
2026-05-07 21:05 26.47758 -15.37719 39020 ft 541 kts 25°
2026-05-07 21:06 26.54205 -15.33368 39024 ft 541 kts 25°
2026-05-07 21:06 26.60648 -15.29015 39026 ft 541 kts 25°
2026-05-07 21:07 26.67092 -15.24654 39040 ft 541 kts 25°
2026-05-07 21:07 26.73539 -15.20288 39029 ft 542 kts 25°
2026-05-07 21:08 26.79986 -15.15918 39029 ft 542 kts 25°
2026-05-07 21:08 26.86424 -15.11541 39029 ft 542 kts 25°
2026-05-07 21:09 26.92865 -15.07157 39027 ft 542 kts 25°
2026-05-07 21:09 26.99310 -15.02766 39029 ft 542 kts 25°
2026-05-07 21:10 27.05746 -14.98376 39028 ft 542 kts 25°
2026-05-07 21:10 27.12183 -14.93979 39026 ft 542 kts 25°
2026-05-07 21:11 27.18579 -14.89604 39029 ft 542 kts 25°
2026-05-07 21:11 27.28243 -14.82983 39040 ft 543 kts 25°
2026-05-07 21:12 27.34690 -14.78558 39031 ft 543 kts 25°
2026-05-07 21:12 27.41142 -14.74123 39038 ft 543 kts 25°
2026-05-07 21:13 27.47587 -14.69688 39037 ft 543 kts 25°
2026-05-07 21:13 27.54035 -14.65244 39036 ft 543 kts 25°
2026-05-07 21:14 27.60479 -14.60796 39057 ft 543 kts 25°
2026-05-07 21:14 27.66924 -14.56342 39039 ft 543 kts 25°
2026-05-07 21:15 27.73373 -14.51879 39040 ft 544 kts 25°
2026-05-07 21:15 27.79785 -14.47435 39037 ft 544 kts 25°
2026-05-07 21:16 27.86244 -14.42952 39039 ft 544 kts 25°
2026-05-07 21:16 27.92684 -14.38475 39056 ft 544 kts 25°
2026-05-07 21:17 27.99124 -14.33992 39038 ft 543 kts 25°
2026-05-07 21:17 28.05551 -14.29513 39038 ft 543 kts 25°
2026-05-07 21:18 28.11980 -14.25026 39035 ft 542 kts 25°
2026-05-07 21:18 28.18403 -14.20537 39036 ft 543 kts 25°
2026-05-07 21:19 28.24835 -14.16035 39047 ft 543 kts 25°
2026-05-07 21:19 28.31268 -14.11525 39047 ft 544 kts 25°
2026-05-07 21:20 28.37700 -14.07011 39043 ft 544 kts 25°
2026-05-07 21:20 28.44137 -14.02485 39023 ft 544 kts 25°
2026-05-07 21:21 28.50572 -13.97955 39023 ft 544 kts 25°
2026-05-07 21:21 28.57002 -13.93419 39028 ft 544 kts 25°
2026-05-07 21:22 28.63432 -13.88880 39028 ft 544 kts 25°
2026-05-07 21:22 28.69859 -13.84334 39034 ft 545 kts 25°
2026-05-07 21:23 28.76313 -13.79767 39045 ft 547 kts 25°
2026-05-07 21:23 28.82775 -13.75184 39050 ft 547 kts 25°
2026-05-07 21:24 28.89240 -13.70589 39020 ft 547 kts 25°
2026-05-07 21:24 28.95698 -13.65995 39027 ft 547 kts 25°
2026-05-07 21:25 29.02158 -13.61393 39019 ft 547 kts 25°
2026-05-07 21:25 29.08613 -13.56787 39028 ft 547 kts 25°
2026-05-07 21:26 29.15068 -13.52177 39064 ft 547 kts 24°
2026-05-07 21:26 29.21446 -13.47528 39035 ft 550 kts 26°
2026-05-07 21:27 29.27819 -13.42656 39040 ft 551 kts 26°
2026-05-07 21:27 29.34195 -13.37759 39057 ft 551 kts 26°
2026-05-07 21:28 29.40582 -13.32882 39054 ft 551 kts 26°
2026-05-07 21:28 29.46970 -13.28015 39057 ft 552 kts 26°
2026-05-07 21:29 29.52296 -13.23956 39048 ft 553 kts 26°
2026-05-07 21:29 29.58698 -13.19069 39047 ft 553 kts 26°
2026-05-07 21:30 29.65100 -13.14172 39048 ft 553 kts 26°
2026-05-07 21:30 29.71507 -13.09265 39049 ft 554 kts 26°
2026-05-07 21:31 29.77928 -13.04339 39052 ft 556 kts 26°
2026-05-07 21:31 29.84371 -12.99389 39049 ft 557 kts 26°
2026-05-07 21:32 29.90820 -12.94424 39046 ft 557 kts 26°
2026-05-07 21:32 29.97265 -12.89454 39045 ft 557 kts 26°
2026-05-07 21:33 30.03713 -12.84475 39044 ft 557 kts 26°
2026-05-07 21:33 30.10157 -12.79491 39041 ft 558 kts 26°
2026-05-07 21:34 30.16603 -12.74499 39038 ft 558 kts 26°
2026-05-07 21:34 30.23058 -12.69492 39038 ft 559 kts 26°
2026-05-07 21:35 30.29518 -12.64471 39036 ft 559 kts 26°
2026-05-07 21:35 30.35973 -12.59447 39060 ft 560 kts 26°
2026-05-07 21:36 30.42449 -12.54400 39038 ft 562 kts 26°
2026-05-07 21:36 30.48934 -12.49336 39032 ft 562 kts 26°
2026-05-07 21:37 30.55419 -12.44262 39034 ft 562 kts 26°
2026-05-07 21:37 30.61900 -12.39184 39025 ft 563 kts 26°
2026-05-07 21:38 30.68393 -12.34091 39036 ft 564 kts 26°
2026-05-07 21:38 30.74900 -12.28977 39026 ft 565 kts 27°
2026-05-07 21:39 30.81411 -12.23849 39026 ft 565 kts 27°
2026-05-07 21:39 30.87877 -12.18749 39026 ft 565 kts 27°
2026-05-07 21:40 30.94430 -12.13572 39029 ft 565 kts 27°
2026-05-07 21:40 31.00905 -12.08451 39029 ft 567 kts 27°
2026-05-07 21:41 31.07434 -12.03276 39008 ft 568 kts 27°
2026-05-07 21:41 31.13972 -11.98085 39026 ft 568 kts 27°
2026-05-07 21:42 31.20510 -11.92885 39023 ft 568 kts 27°
2026-05-07 21:42 31.27047 -11.87677 39036 ft 570 kts 27°
2026-05-07 21:43 31.33604 -11.82446 39017 ft 572 kts 27°
2026-05-07 21:43 31.40177 -11.77191 39018 ft 572 kts 27°
2026-05-07 21:44 31.46746 -11.71929 39021 ft 572 kts 27°
2026-05-07 21:44 31.53312 -11.66661 39018 ft 572 kts 28°
2026-05-07 21:45 31.59888 -11.61378 39020 ft 574 kts 28°
2026-05-07 21:45 31.66483 -11.56070 39017 ft 575 kts 28°
2026-05-07 21:46 31.73075 -11.50754 39013 ft 575 kts 28°
2026-05-07 21:46 31.79671 -11.45425 39015 ft 575 kts 28°
2026-05-07 21:47 31.86266 -11.40089 39022 ft 576 kts 29°
2026-05-07 21:47 31.92884 -11.34725 39017 ft 578 kts 29°
2026-05-07 21:48 31.99502 -11.29350 39000 ft 578 kts 29°
2026-05-07 21:48 32.06122 -11.23963 39018 ft 578 kts 29°
2026-05-07 21:49 32.12741 -11.18569 39055 ft 578 kts 30°
2026-05-07 21:49 32.19376 -11.13153 39009 ft 581 kts 30°
2026-05-07 21:50 32.26022 -11.07717 39010 ft 582 kts 30°
2026-05-07 21:50 32.32670 -11.02268 39009 ft 582 kts 30°
2026-05-07 21:51 32.39319 -10.96809 39007 ft 582 kts 30°
2026-05-07 21:51 32.45971 -10.91339 39003 ft 582 kts 31°
2026-05-07 21:52 32.52580 -10.85894 39010 ft 583 kts 31°
2026-05-07 21:52 32.59277 -10.80365 39010 ft 583 kts 31°
2026-05-07 21:53 32.65927 -10.74865 39010 ft 583 kts 31°
2026-05-07 21:53 32.72533 -10.69393 39018 ft 583 kts 32°
2026-05-07 21:54 32.79192 -10.63867 39010 ft 584 kts 32°
2026-05-07 21:54 32.85844 -10.58333 39006 ft 584 kts 32°
2026-05-07 21:55 32.92496 -10.52791 39012 ft 584 kts 32°
2026-05-07 21:55 32.99146 -10.47240 39012 ft 583 kts 32°
2026-05-07 21:56 33.05786 -10.41687 39007 ft 583 kts 32°
2026-05-07 21:56 33.11381 -10.37001 38956 ft 580 kts 32°
2026-05-07 21:57 33.17881 -10.31533 38974 ft 567 kts 30°
2026-05-07 21:57 33.24238 -10.26185 38972 ft 554 kts 30°
2026-05-07 21:58 33.30534 -10.20889 38977 ft 553 kts 31°
2026-05-07 21:58 33.36814 -10.15596 38970 ft 552 kts 31°
2026-05-07 21:59 33.43083 -10.10299 38969 ft 551 kts 31°
2026-05-07 21:59 33.49340 -10.05001 38972 ft 551 kts 31°
2026-05-07 22:00 33.55590 -9.99700 38999 ft 551 kts 31°
2026-05-07 22:00 33.61844 -9.94385 38969 ft 551 kts 31°
2026-05-07 22:01 33.68099 -9.89060 38968 ft 551 kts 31°
2026-05-07 22:01 33.74348 -9.83729 38967 ft 551 kts 31°
2026-05-07 22:02 33.80588 -9.78396 38964 ft 550 kts 31°
2026-05-07 22:02 33.86813 -9.73068 38974 ft 549 kts 31°
2026-05-07 22:03 33.93001 -9.67761 38962 ft 550 kts 31°
2026-05-07 22:03 33.99224 -9.62414 38962 ft 549 kts 31°
2026-05-07 22:04 34.05441 -9.57064 38983 ft 547 kts 32°
2026-05-07 22:04 34.11622 -9.51732 38981 ft 546 kts 31°
2026-05-07 22:05 34.17802 -9.46394 38963 ft 547 kts 32°
2026-05-07 22:05 34.23983 -9.41043 38962 ft 546 kts 31°
2026-05-07 22:06 34.30159 -9.35688 38963 ft 546 kts 31°
2026-05-07 22:06 34.36331 -9.30326 38963 ft 546 kts 31°
2026-05-07 22:07 34.42500 -9.24957 38965 ft 547 kts 32°
2026-05-07 22:07 34.46221 -9.21714 38960 ft 547 kts 32°
2026-05-07 22:08 34.52400 -9.16320 38961 ft 547 kts 32°
2026-05-07 22:08 34.58576 -9.10919 38960 ft 547 kts 32°
2026-05-07 22:09 34.64750 -9.05508 38961 ft 547 kts 32°
2026-05-07 22:09 34.70908 -9.00102 38964 ft 546 kts 32°
2026-05-07 22:10 34.77071 -8.94682 38963 ft 547 kts 32°
2026-05-07 22:10 34.83238 -8.89248 38963 ft 547 kts 32°
2026-05-07 22:11 34.89404 -8.83804 38963 ft 547 kts 32°
2026-05-07 22:11 34.95569 -8.78352 38965 ft 548 kts 32°
2026-05-07 22:12 35.01734 -8.72888 38963 ft 548 kts 32°
2026-05-07 22:12 35.07898 -8.67415 38956 ft 547 kts 32°
2026-05-07 22:13 35.14046 -8.61944 38961 ft 546 kts 32°
2026-05-07 22:13 35.20188 -8.56471 38977 ft 547 kts 32°
2026-05-07 22:14 35.25297 -8.51910 38961 ft 547 kts 32°
2026-05-07 22:14 35.32438 -8.45522 38962 ft 547 kts 32°
2026-05-07 22:15 35.38588 -8.40009 38965 ft 548 kts 32°
2026-05-07 22:15 35.44734 -8.34488 38955 ft 548 kts 32°
2026-05-07 22:16 35.49879 -8.29858 38952 ft 546 kts 32°
2026-05-07 22:16 35.55994 -8.24345 38968 ft 545 kts 32°
2026-05-07 22:17 35.62105 -8.18828 38955 ft 545 kts 33°
2026-05-07 22:17 35.68217 -8.13298 38951 ft 545 kts 33°
2026-05-07 22:18 35.77337 -8.05026 38949 ft 546 kts 33°
2026-05-07 22:19 35.83442 -7.99474 38951 ft 546 kts 33°
2026-05-07 22:19 35.89551 -7.93909 38968 ft 546 kts 33°
2026-05-07 22:20 35.95658 -7.88334 38968 ft 546 kts 33°
2026-05-07 22:20 36.01761 -7.82752 38959 ft 546 kts 33°
2026-05-07 22:21 36.07871 -7.77153 38952 ft 547 kts 33°
2026-05-07 22:21 36.13977 -7.71547 38952 ft 547 kts 33°
2026-05-07 22:22 36.20088 -7.65923 38952 ft 547 kts 33°
2026-05-07 22:22 36.26190 -7.60298 38969 ft 547 kts 33°
2026-05-07 22:23 36.32294 -7.54658 38946 ft 547 kts 34°
2026-05-07 22:23 36.38401 -7.49005 38947 ft 548 kts 34°
2026-05-07 22:24 36.44508 -7.43342 38947 ft 548 kts 34°
2026-05-07 22:24 36.50612 -7.37670 38946 ft 548 kts 34°
2026-05-07 22:25 36.56712 -7.31991 38942 ft 547 kts 34°
2026-05-07 22:25 36.62802 -7.26307 38935 ft 547 kts 35°
2026-05-07 22:26 36.68885 -7.20620 38924 ft 547 kts 34°
2026-05-07 22:26 36.74918 -7.14967 38935 ft 545 kts 34°
2026-05-07 22:27 36.80977 -7.09278 38939 ft 545 kts 34°
2026-05-07 22:27 36.87028 -7.03586 38930 ft 544 kts 34°
2026-05-07 22:28 36.93072 -6.97890 38930 ft 544 kts 34°
2026-05-07 22:28 36.99117 -6.92180 38927 ft 544 kts 35°
2026-05-07 22:29 37.05158 -6.86463 38934 ft 545 kts 35°
2026-05-07 22:29 37.11198 -6.80734 38926 ft 545 kts 34°
2026-05-07 22:30 37.17237 -6.74995 38927 ft 545 kts 34°
2026-05-07 22:30 37.23280 -6.69240 38928 ft 545 kts 34°
2026-05-07 22:31 37.29317 -6.63479 38955 ft 545 kts 34°
2026-05-07 22:31 37.35351 -6.57710 38928 ft 545 kts 35°
2026-05-07 22:32 37.41377 -6.51935 38926 ft 545 kts 35°
2026-05-07 22:32 37.47402 -6.46150 38914 ft 545 kts 34°
2026-05-07 22:33 37.53423 -6.40357 38927 ft 545 kts 34°
2026-05-07 22:33 37.59441 -6.34554 38926 ft 544 kts 34°
2026-05-07 22:34 37.65453 -6.28745 38926 ft 544 kts 34°
2026-05-07 22:34 37.71458 -6.22930 38925 ft 544 kts 34°
2026-05-07 22:35 37.77464 -6.17101 38927 ft 544 kts 34°
2026-05-07 22:35 37.83465 -6.11267 38924 ft 544 kts 34°
2026-05-07 22:36 37.89456 -6.05430 38923 ft 542 kts 34°
2026-05-07 22:36 37.95420 -5.99605 38917 ft 542 kts 34°
2026-05-07 22:37 38.01346 -5.93763 38919 ft 542 kts 34°
2026-05-07 22:37 38.07311 -5.87859 38919 ft 542 kts 34°
2026-05-07 22:38 38.13211 -5.82011 38918 ft 541 kts 34°
2026-05-07 22:38 38.19152 -5.76112 38913 ft 541 kts 34°
2026-05-07 22:39 38.25082 -5.70209 38902 ft 541 kts 34°
2026-05-07 22:39 38.31006 -5.64302 38905 ft 541 kts 34°
2026-05-07 22:40 38.36934 -5.58378 38910 ft 541 kts 34°
2026-05-07 22:40 38.42855 -5.52449 38907 ft 541 kts 34°
2026-05-07 22:41 38.48779 -5.46503 38902 ft 542 kts 34°
2026-05-07 22:41 38.54692 -5.40556 38912 ft 542 kts 35°
2026-05-07 22:42 38.60616 -5.34585 38905 ft 543 kts 35°
2026-05-07 22:42 38.66542 -5.28599 38899 ft 542 kts 35°
2026-05-07 22:43 38.72449 -5.22618 38897 ft 541 kts 35°
2026-05-07 22:43 38.78351 -5.16630 38917 ft 541 kts 35°
2026-05-07 22:44 38.84184 -5.10696 38576 ft 524 kts 35°
2026-05-07 22:44 38.87000 -5.07823 37689 ft 513 kts 35°
2026-05-07 22:44 38.89755 -5.05016 36473 ft 511 kts 35°
2026-05-07 22:44 38.92535 -5.02182 35212 ft 511 kts 35°
2026-05-07 22:45 38.95314 -4.99346 33941 ft 510 kts 36°
2026-05-07 22:45 38.98094 -4.96504 32744 ft 508 kts 36°
2026-05-07 22:45 39.00838 -4.93693 31822 ft 500 kts 36°
2026-05-07 22:45 39.03528 -4.90935 30992 ft 490 kts 36°
2026-05-07 22:46 39.06166 -4.88229 30151 ft 481 kts 36°
2026-05-07 22:46 39.08759 -4.85566 29172 ft 473 kts 36°
2026-05-07 22:46 39.11311 -4.82944 28157 ft 466 kts 36°
2026-05-07 22:46 39.13822 -4.80361 27188 ft 459 kts 36°
2026-05-07 22:47 39.16295 -4.77815 26256 ft 452 kts 37°
2026-05-07 22:47 39.18724 -4.75290 25351 ft 446 kts 38°
2026-05-07 22:47 39.20990 -4.72553 24900 ft 443 kts 43°
2026-05-07 22:47 39.23166 -4.69757 24667 ft 441 kts 44°
2026-05-07 22:48 39.25331 -4.66957 24434 ft 441 kts 44°
2026-05-07 22:48 39.27490 -4.64161 24213 ft 438 kts 44°
2026-05-07 22:48 39.29635 -4.61380 23977 ft 436 kts 44°
2026-05-07 22:48 39.31771 -4.58612 23753 ft 434 kts 44°
2026-05-07 22:49 39.33898 -4.55850 23524 ft 432 kts 44°
2026-05-07 22:49 39.35997 -4.53124 23185 ft 424 kts 44°
2026-05-07 22:49 39.38066 -4.50435 22726 ft 419 kts 44°
2026-05-07 22:49 39.40109 -4.47778 22214 ft 414 kts 44°
2026-05-07 22:50 39.42126 -4.45151 21732 ft 410 kts 44°
2026-05-07 22:50 39.44128 -4.42543 21237 ft 406 kts 44°
2026-05-07 22:50 39.46109 -4.39959 20756 ft 403 kts 44°
2026-05-07 22:50 39.48074 -4.37393 20268 ft 400 kts 44°
2026-05-07 22:51 39.50024 -4.34846 19799 ft 397 kts 44°
2026-05-07 22:51 39.51958 -4.32316 19318 ft 394 kts 44°
2026-05-07 22:51 39.53880 -4.29799 18834 ft 391 kts 44°
2026-05-07 22:51 39.55781 -4.27310 18411 ft 387 kts 44°
2026-05-07 22:52 39.57674 -4.24830 17857 ft 386 kts 45°
2026-05-07 22:52 39.59549 -4.22371 17353 ft 382 kts 45°
2026-05-07 22:52 39.61404 -4.19936 16894 ft 377 kts 45°
2026-05-07 22:52 39.63234 -4.17531 16443 ft 373 kts 45°
2026-05-07 22:53 39.65044 -4.15150 15950 ft 369 kts 45°
2026-05-07 22:53 39.66835 -4.12794 15621 ft 361 kts 46°
2026-05-07 22:53 39.68564 -4.10517 15489 ft 347 kts 46°
2026-05-07 22:53 39.70220 -4.08335 15353 ft 332 kts 46°
2026-05-07 22:54 39.71809 -4.06238 15222 ft 320 kts 46°
2026-05-07 22:54 39.73341 -4.04217 15093 ft 308 kts 46°
2026-05-07 22:54 39.74811 -4.02273 14970 ft 296 kts 46°
2026-05-07 22:54 39.76234 -4.00392 14757 ft 289 kts 46°
2026-05-07 22:55 39.77632 -3.98543 14470 ft 285 kts 46°
2026-05-07 22:55 39.79007 -3.96723 14210 ft 280 kts 46°
2026-05-07 22:55 39.80363 -3.94928 13954 ft 277 kts 46°
2026-05-07 22:55 39.81708 -3.93147 13725 ft 277 kts 46°
2026-05-07 22:56 39.83058 -3.91357 13461 ft 277 kts 46°
2026-05-07 22:56 39.84405 -3.89568 13220 ft 276 kts 46°
2026-05-07 22:56 39.85750 -3.87782 12989 ft 276 kts 46°
2026-05-07 22:56 39.87090 -3.86003 12741 ft 275 kts 46°
2026-05-07 22:57 39.88411 -3.84247 12518 ft 275 kts 46°
2026-05-07 22:57 39.89745 -3.82473 12283 ft 274 kts 46°
2026-05-07 22:57 39.91078 -3.80700 12033 ft 273 kts 46°
2026-05-07 22:57 39.92404 -3.78934 11813 ft 272 kts 46°
2026-05-07 22:58 39.93730 -3.77163 11607 ft 281 kts 46°
2026-05-07 22:58 39.95184 -3.75224 11566 ft 310 kts 46°
2026-05-07 22:58 39.96693 -3.73212 11318 ft 309 kts 46°
2026-05-07 22:58 39.98203 -3.71199 10840 ft 313 kts 46°
2026-05-07 22:59 39.99732 -3.69158 10535 ft 312 kts 46°
2026-05-07 22:59 40.01227 -3.67161 10253 ft 304 kts 46°
2026-05-07 22:59 40.02701 -3.65191 9991 ft 302 kts 46°
2026-05-07 22:59 40.04164 -3.63232 9720 ft 301 kts 46°
2026-05-07 23:00 40.05624 -3.61279 9465 ft 300 kts 46°
2026-05-07 23:00 40.07075 -3.59335 9196 ft 298 kts 46°
2026-05-07 23:00 40.08518 -3.57399 8939 ft 296 kts 46°
2026-05-07 23:00 40.09954 -3.55473 8697 ft 295 kts 46°
2026-05-07 23:01 40.11378 -3.53560 8447 ft 293 kts 46°
2026-05-07 23:01 40.12797 -3.51653 8192 ft 292 kts 46°
2026-05-07 23:01 40.14207 -3.49758 7942 ft 290 kts 47°
2026-05-07 23:01 40.15609 -3.47872 7697 ft 288 kts 47°
2026-05-07 23:02 40.17003 -3.45997 7445 ft 287 kts 47°
2026-05-07 23:02 40.18435 -3.44188 7188 ft 285 kts 43°
2026-05-07 23:02 40.19918 -3.42473 6947 ft 284 kts 42°
2026-05-07 23:02 40.21504 -3.40939 6761 ft 284 kts 32°
2026-05-07 23:03 40.23191 -3.39681 6616 ft 273 kts 29°
2026-05-07 23:03 40.24283 -3.38907 6503 ft 266 kts 28°
2026-05-07 23:03 40.26006 -3.38167 6283 ft 258 kts
2026-05-07 23:03 40.27766 -3.37969 6121 ft 249 kts
2026-05-07 23:04 40.29458 -3.37860 5979 ft 239 kts
2026-05-07 23:04 40.31085 -3.37835 5830 ft 230 kts 354°
2026-05-07 23:04 40.32540 -3.38510 5683 ft 218 kts 328°
2026-05-07 23:04 40.33727 -3.39705 5413 ft 213 kts 317°
2026-05-07 23:05 40.34845 -3.40936 5100 ft 209 kts 320°
2026-05-07 23:05 40.35991 -3.42086 4805 ft 206 kts 322°
2026-05-07 23:05 40.37116 -3.43217 4514 ft 200 kts 321°
2026-05-07 23:05 40.38179 -3.44301 4258 ft 187 kts 322°
2026-05-07 23:06 40.39182 -3.45320 4014 ft 178 kts 322°
2026-05-07 23:06 40.40141 -3.46293 3781 ft 170 kts 322°
2026-05-07 23:06 40.41049 -3.47216 3564 ft 161 kts 323°
2026-05-07 23:06 40.41910 -3.48090 3349 ft 151 kts 323°
2026-05-07 23:07 40.42722 -3.48915 3120 ft 144 kts 323°
2026-05-07 23:07 40.43495 -3.49700 2912 ft 137 kts 323°
2026-05-07 23:07 40.44220 -3.50438 2748 ft 132 kts 323°
2026-05-07 23:07 40.44944 -3.51172 2572 ft 132 kts 323°
2026-05-07 23:08 40.45669 -3.51910 2404 ft 132 kts 323°
2026-05-07 23:08 40.46390 -3.52644 2216 ft 131 kts 322°
2026-05-07 23:08 40.47108 -3.53386 2037 ft 130 kts 324°
2026-05-07 23:08 40.47824 -3.54116 1934 ft 127 kts 324°
2026-05-07 23:09 40.48441 -3.54731 1945 ft 95 kts 322°
2026-05-07 23:09 40.48892 -3.55187 1959 ft 70 kts 322°
2026-05-07 23:09 40.49085 -3.55384 1961 ft 9 kts 321°
2026-05-07 23:09 40.49137 -3.55447 1961 ft 11 kts 313°
2026-05-07 23:10 40.49185 -3.55532 1964 ft 11 kts 304°
2026-05-07 23:10 40.49221 -3.55616 1966 ft 9 kts 292°
2026-05-07 23:10 40.49248 -3.55704 1971 ft 12 kts 292°
2026-05-07 23:10 40.49283 -3.55816 1968 ft 15 kts 292°
2026-05-07 23:11 40.49299 -3.55958 1966 ft 16 kts 268°
2026-05-07 23:11 40.49298 -3.56123 1965 ft 20 kts 269°
2026-05-07 23:11 40.49357 -3.56248 1973 ft 17 kts 347°
2026-05-07 23:11 40.49481 -3.56249 1974 ft 19 kts 360°
2026-05-07 23:12 40.49550 -3.56331 1974 ft 11 kts 268°
2026-05-07 23:12 40.49551 -3.56436 1977 ft 12 kts 271°
2026-05-07 23:12 40.49559 -3.56534 1980 ft 9 kts 279°
2026-05-07 23:12 40.49562 -3.56582 1980 ft 4 kts 272°
2026-05-07 23:13 40.49562 -3.56613 1981 ft 0 kts 269°
2026-05-07 23:13 40.49562 -3.56621 1982 ft 2 kts 269°
2026-05-07 23:13 40.49562 -3.56639 1980 ft 2 kts 270°
2026-05-07 23:13 40.49562 -3.56646 1982 ft 0 kts 270°
2026-05-07 23:14 40.49562 -3.56652 1982 ft 0 kts 270°
2026-05-07 23:17 40.49562 -3.56667 1980 ft 0 kts 271°